[[{"header":{"parameterUnit":"m.s-1","parameterCategory":1,"la1":30.2991,"la2":30.254,"lo1":-89.0895,"lo2":-89.0444,"dy":0.0017,"dx":0.0017,"nx":28,"ny":28,"refTime":"2024-08-12T03:00:00:Z","depth":0,"parameterNumber":2,"parameterNumberName":"U-component_of_WINDS"},"data":[0,0,0,0,0,0,0,0,0,0,0,0,0,0,0,0,0,0,0,0,0,0,0,0,0,0,0,0,0,0,0,0,0,0,0,0,0,0,0,0,0,0,0,0,0,0,0,0,0,0,0,0,0,0,0,0,0,0,1.9351,1.9352,0,1.949,1.9492,1.9493,1.9517,1.9516,1.9515,1.9514,1.9658,1.9663,1.9668,0,0,0,0,0,0,0,0,0,0,0,0,0,1.9105,1.911,1.9351,1.9352,1.9354,1.949,1.9492,1.9494,1.9517,1.9516,1.9515,1.9513,1.9656,1.9662,1.9668,0,0,0,0,0,0,0,0,0,0,0,0,0,1.9225,1.9111,1.935,1.9382,1.9387,1.949,1.9492,1.9494,1.9518,1.9516,1.9514,1.9513,1.9654,1.9662,1.9669,1.975,0,0,1.9691,1.9695,0,0,0,0,0,0,0,0,1.9218,1.9234,1.9376,1.938,1.9385,1.9484,1.9458,1.958,1.9518,1.9468,1.9514,1.9512,1.9602,1.9613,1.9643,1.9757,1.9763,1.9692,1.9697,1.97,1.9702,0,0,0,0,0,0,0,1.921,1.9228,1.9406,1.9378,1.9384,1.939,1.9405,1.9481,1.9543,1.9472,1.9474,1.949,1.9604,1.9636,1.9647,1.9765,1.9692,1.9699,1.9703,1.9706,1.995,1.9952,0,0,0,0,0,0,1.9196,1.9221,1.9402,1.941,1.9296,1.9396,1.9412,1.9454,1.9542,1.9554,1.9492,1.9491,1.9624,1.9638,1.9652,1.9752,1.97,1.9707,1.9711,1.9948,1.9951,1.9953,0,0,0,0,0,0,1.919,1.9212,1.9396,1.9316,1.934,1.9402,1.9449,1.9458,1.949,1.9557,1.9568,1.9513,1.9624,1.9642,1.9725,1.9757,1.971,1.9717,1.9946,1.9949,1.9952,1.9952,0,0,0,0,0,0,1.9183,1.9209,1.9241,1.9317,1.9344,1.9466,1.9451,1.9462,1.9503,1.9503,1.958,1.9591,1.9624,1.9714,1.9732,1.9766,1.9723,1.9943,1.9947,1.9951,1.995,1.9955,1.9959,0,0,0,0,0,1.9174,1.9236,1.9243,1.9264,1.9385,1.9468,1.9484,1.9519,1.9505,1.9538,1.958,1.9589,1.9751,1.9722,1.9743,1.978,1.9941,1.9946,1.9951,1.9947,1.9954,1.9959,0,0,0,0,0,0,1.9164,1.9247,1.9255,1.9343,1.9398,1.9472,1.9514,1.9525,1.9586,1.9584,1.9626,1.9643,1.9723,1.976,1.9727,1.9862,1.9845,1.9854,1.9835,1.9842,1.9847,1.9836,1.9729,0,0,0,0,0,1.9171,1.9232,1.9301,1.9373,1.94,1.9452,1.949,1.9512,1.9571,1.9595,1.9643,1.9701,1.9764,1.9805,1.9868,1.9955,1.9972,1.9991,1.9996,1.9999,2.0006,2.0054,2.0063,1.9968,1.9968,1.9968,0,0,1.9188,1.9241,1.9277,1.9372,1.9417,1.9479,1.9471,1.9537,1.9583,1.9605,1.9686,1.9724,1.979,1.9875,1.9915,1.9909,2.0036,2.0005,2.0008,2.0013,2.006,2.0068,2.0076,1.9971,1.9971,1.997,0,0,1.925,1.9297,1.9361,1.9406,1.9474,1.9508,1.9523,1.9596,1.9621,1.9703,1.972,1.9775,1.9884,1.993,1.9968,2.0046,2.0056,2.0065,2.0091,2.0137,2.0144,2.0151,2.0177,2.0187,2.0072,2.0072,2.0072,0,1.9263,1.9356,1.9392,1.9457,1.9497,1.9519,1.9583,1.9625,1.9711,1.9738,1.9729,1.9865,1.9912,2.0007,2.0026,2.0056,2.0074,2.0056,2.014,2.0147,2.0154,2.018,2.019,2.0073,2.0073,2.0073,2.0073,0,1.9367,1.9431,1.9475,1.9555,1.9601,1.9665,1.9711,1.9752,1.977,1.9805,1.9887,1.9944,2.0017,2.0042,2.006,2.014,2.0133,2.0132,2.0115,2.0163,2.0188,2.0198,2.0074,2.0073,2.0073,2.0073,0,0,1.9427,1.9526,1.9541,1.9577,1.9654,1.9704,1.9769,1.984,1.9874,1.9932,1.9987,2.0078,2.0076,2.0119,2.0143,2.0184,2.024,2.0177,2.0179,2.0186,2.0329,2.0329,2.034,2.0247,2.0249,2.0251,2.0323,0,1.9497,1.9613,1.9646,1.9744,1.9803,1.9823,1.988,1.9932,1.9966,2.0021,2.0059,2.0122,2.0116,2.0142,2.0183,2.0224,2.0269,2.022,2.0298,2.03,2.028,2.0353,2.0354,2.0419,2.0333,2.0335,2.0336,0,1.9595,1.9653,1.9756,1.9824,1.985,1.99,1.9966,2.0019,2.0079,2.0101,2.0147,2.0168,2.0235,2.0215,2.0308,2.0274,2.0308,2.0333,2.0336,2.0345,2.032,2.0362,2.0441,2.0451,2.0352,2.0351,2.0349,0,1.9626,1.9731,1.9806,1.9836,1.9917,1.9952,1.9987,2.0045,2.0085,2.0144,2.017,2.0236,2.0272,2.0322,2.0359,2.0341,2.0449,2.0432,2.0469,2.0467,2.049,2.0488,2.0575,2.0513,2.0513,2.0513,2.0513,0,1.9701,1.9763,1.9821,1.9867,1.9936,1.9974,2.0042,2.0078,2.0129,2.0182,2.0205,2.0254,2.03,2.0356,2.0385,2.0457,2.0474,2.0493,2.05,2.049,2.0488,2.0513,2.0509,2.0516,2.0515,2.0514,2.0514,0,1.9748,1.9789,1.9872,1.9941,1.996,2.0008,2.0067,2.0113,2.0147,2.0213,2.0231,2.0285,2.0351,2.0393,2.0478,2.0497,2.0576,2.0582,2.0556,2.0559,2.0592,2.0588,2.0697,2.0713,2.0642,2.0642,2.0643,0,1.9792,1.984,1.9914,1.9951,1.9986,2.0045,2.0086,2.0124,2.0166,2.0237,2.0273,2.034,2.0396,2.0501,2.0547,2.0612,2.0619,2.0653,2.0629,2.0617,2.0618,2.0614,2.0619,2.0656,2.0657,2.0658,2.0658,0,1.9866,1.9884,1.9941,2.0005,2.0053,2.0106,2.0158,2.0187,2.0235,2.028,2.0347,2.039,2.0476,2.0542,2.061,2.0647,2.066,2.0665,2.0677,2.0667,2.0649,2.0658,2.0565,2.0662,2.0662,2.0662,2.0661,2.0661,1.9912,1.9955,2.0014,2.0076,2.012,2.0168,2.0213,2.0253,2.0309,2.0381,2.0401,2.0471,2.0528,2.0621,2.0659,2.0714,2.071,2.0727,2.0731,2.0735,2.0734,2.0641,2.0727,2.0727,2.0727,2.0727,2.0727,0,1.9986,2.0025,2.0082,2.0154,2.0203,2.0211,2.0269,2.031,2.0371,2.0423,2.0477,2.0554,2.0618,2.0669,2.0735,2.0769,2.0777,2.0785,2.0783,2.0791,2.0735,2.0718,2.0778,2.0778,2.0778,2.0778,2.0778,2.0778,2.0031,2.0103,2.0128,2.0221,2.0259,2.0328,2.036,2.0404,2.0446,2.0531,2.0583,2.0616,2.0668,2.0737,2.0796,2.0809,2.0832,2.0839,2.0853,2.08,2.0795,2.0789,2.0773,2.0844,2.0844,2.0904,2.0905,2.0905]},{"header":{"parameterUnit":"m.s-1","parameterCategory":1,"la1":30.2991,"la2":30.254,"lo1":-89.0895,"lo2":-89.0444,"dy":0.0017,"dx":0.0017,"nx":28,"ny":28,"refTime":"2024-08-12T03:00:00:Z","depth":0,"parameterNumber":3,"parameterNumberName":"V-component_of_WINDS"},"data":[0,0,0,0,0,0,0,0,0,0,0,0,0,0,0,0,0,0,0,0,0,0,0,0,0,0,0,0,0,0,0,0,0,0,0,0,0,0,0,0,0,0,0,0,0,0,0,0,0,0,0,0,0,0,0,0,0,0,4.4559,4.4558,0,4.4451,4.4449,4.4448,4.4331,4.4329,4.4328,4.4326,4.4211,4.4209,4.4208,0,0,0,0,0,0,0,0,0,0,0,0,0,4.466,4.4659,4.4559,4.4557,4.4556,4.4451,4.4449,4.4448,4.4331,4.4329,4.4327,4.4325,4.4211,4.421,4.4208,0,0,0,0,0,0,0,0,0,0,0,0,0,4.459,4.4658,4.4559,4.4485,4.4478,4.4451,4.4449,4.4447,4.4332,4.4329,4.4327,4.4325,4.4212,4.421,4.4208,4.4243,0,0,4.4201,4.42,0,0,0,0,0,0,0,0,4.4594,4.4587,4.4498,4.449,4.4482,4.4402,4.4442,4.4379,4.4332,4.4387,4.4326,4.4323,4.4276,4.4268,4.4253,4.4238,4.4233,4.42,4.4199,4.4198,4.4197,0,0,0,0,0,0,0,4.4599,4.4591,4.4516,4.4496,4.4487,4.4456,4.4444,4.443,4.4347,4.4382,4.4373,4.4362,4.4271,4.4256,4.425,4.4231,4.42,4.4198,4.4197,4.4196,4.4238,4.424,0,0,0,0,0,0,4.4616,4.4596,4.4519,4.4513,4.4533,4.4457,4.4442,4.443,4.4347,4.4332,4.4365,4.4357,4.4261,4.4253,4.4245,4.428,4.4198,4.4196,4.4195,4.4235,4.4238,4.4241,0,0,0,0,0,0,4.4619,4.461,4.4524,4.4552,4.4538,4.4457,4.4444,4.4429,4.4414,4.4333,4.4318,4.4365,4.4259,4.4249,4.4245,4.4275,4.4195,4.4193,4.4232,4.4236,4.4239,4.4352,0,0,0,0,0,0,4.4622,4.4612,4.4626,4.4553,4.4537,4.4527,4.4446,4.4429,4.4411,4.44,4.4329,4.4315,4.4256,4.4249,4.4242,4.427,4.4191,4.4229,4.4234,4.4238,4.4345,4.4359,4.4371,0,0,0,0,0,4.4626,4.4661,4.4627,4.4619,4.4553,4.4529,4.4519,4.4452,4.4414,4.4426,4.4374,4.4317,4.4273,4.4249,4.4241,4.4269,4.4227,4.4232,4.4238,4.434,4.4357,4.4371,0,0,0,0,0,0,4.4738,4.465,4.4612,4.4625,4.4585,4.4509,4.4523,4.4473,4.4442,4.4433,4.435,4.4335,4.434,4.4304,4.4279,4.4298,4.4242,4.4246,4.4322,4.4337,4.435,4.4358,4.4189,0,0,0,0,0,4.4765,4.4754,4.4677,4.4696,4.4678,4.4604,4.4591,4.4543,4.4498,4.448,4.4428,4.4385,4.4361,4.4347,4.4321,4.434,4.4322,4.4355,4.4368,4.4379,4.4383,4.4389,4.4402,4.4259,4.4259,4.4259,0,0,4.4819,4.477,4.4768,4.4717,4.4681,4.4669,4.4591,4.4582,4.4572,4.4478,4.4471,4.4432,4.4378,4.4386,4.4386,4.4356,4.4419,4.4386,4.4395,4.4393,4.4396,4.441,4.4422,4.4263,4.4262,4.4261,0,0,4.4912,4.4874,4.4885,4.4851,4.4797,4.4748,4.4751,4.4682,4.4653,4.4645,4.4574,4.456,4.4521,4.4486,4.4463,4.4542,4.4488,4.4536,4.4603,4.461,4.4621,4.4631,4.4658,4.4669,4.4541,4.4541,4.4541,0,4.4986,4.4967,4.4897,4.4893,4.4872,4.4788,4.4797,4.4767,4.4707,4.4694,4.4661,4.461,4.4568,4.4566,4.4585,4.457,4.4569,4.4543,4.4626,4.4634,4.4642,4.4667,4.4678,4.4547,4.4546,4.4546,4.4545,0,4.506,4.5048,4.5063,4.5009,4.499,4.4993,4.4922,4.4911,4.4864,4.4818,4.481,4.4757,4.4718,4.4714,4.4668,4.4705,4.4687,4.4642,4.4582,4.4663,4.4685,4.4694,4.4556,4.4554,4.4552,4.455,0,0,4.522,4.5127,4.5134,4.5108,4.5043,4.5032,4.503,4.4994,4.4985,4.4947,4.4942,4.4911,4.4868,4.4842,4.4791,4.4798,4.4862,4.475,4.4748,4.4772,4.4898,4.4932,4.4945,4.4827,4.4828,4.4829,4.4902,0,4.53,4.5294,4.5231,4.5242,4.5229,4.5149,4.5147,4.5106,4.5063,4.5044,4.4995,4.4975,4.492,4.4904,4.4906,4.4854,4.4886,4.4848,4.482,4.4819,4.4835,4.4956,4.4992,4.5064,4.491,4.4912,4.4913,0,4.5393,4.5362,4.5373,4.5307,4.5299,4.5299,4.526,4.5244,4.5195,4.5163,4.5135,4.5078,4.507,4.5016,4.5002,4.4978,4.4962,4.4935,4.4936,4.4929,4.487,4.4952,4.5085,4.5095,4.4926,4.4924,4.4924,0,4.5508,4.5468,4.5469,4.5449,4.5373,4.5375,4.5342,4.5291,4.5273,4.5239,4.5226,4.5191,4.5171,4.5144,4.5078,4.5045,4.5072,4.5012,4.5043,4.5045,4.5051,4.5052,4.5182,4.5044,4.5044,4.5043,4.5043,0,4.5603,4.5613,4.5519,4.552,4.5527,4.5453,4.5462,4.5422,4.5377,4.5367,4.5295,4.5287,4.5201,4.5183,4.5131,4.5127,4.5119,4.5091,4.5077,4.5097,4.5101,4.5085,4.5078,4.5046,4.5046,4.5045,4.5045,0,4.5732,4.567,4.5665,4.5594,4.5576,4.5585,4.5522,4.5519,4.5471,4.546,4.5452,4.5377,4.5352,4.5284,4.524,4.5205,4.5215,4.519,4.5232,4.5223,4.5257,4.5255,4.5382,4.5394,4.525,4.5251,4.5252,0,4.5796,4.5802,4.5731,4.572,4.5692,4.5675,4.5656,4.5584,4.5567,4.5512,4.5515,4.5484,4.5455,4.5418,4.5358,4.5324,4.5296,4.5343,4.529,4.531,4.5295,4.5296,4.5295,4.5354,4.5356,4.5358,4.5359,0,4.5917,4.5887,4.5864,4.583,4.581,4.578,4.5745,4.574,4.5658,4.5643,4.5617,4.5595,4.5551,4.552,4.5477,4.5441,4.5386,4.5377,4.5382,4.5402,4.5426,4.5412,4.5262,4.5374,4.5372,4.5371,4.537,4.537,4.6015,4.6015,4.5966,4.5943,4.5909,4.5879,4.5872,4.5824,4.5802,4.5761,4.572,4.5698,4.5647,4.5584,4.5552,4.5533,4.5504,4.5512,4.5514,4.5516,4.5525,4.543,4.5525,4.5524,4.5524,4.5523,4.5523,0,4.6131,4.6095,4.6075,4.6029,4.6011,4.5963,4.5922,4.5908,4.5891,4.585,4.5823,4.5793,4.5763,4.5701,4.5665,4.5661,4.5635,4.5654,4.5653,4.5646,4.5553,4.5552,4.5676,4.5676,4.5676,4.5676,4.5676,4.5676,4.6189,4.6188,4.6151,4.6132,4.6095,4.6075,4.6056,4.6026,4.5993,4.5963,4.5938,4.5899,4.5849,4.5809,4.5779,4.5761,4.575,4.5778,4.5752,4.5667,4.5652,4.5638,4.5637,4.5776,4.5777,4.5845,4.5846,4.5847]}]]